SCP
0 0 0 0 0 0 0 0 0 0 0 1 1 0 0 2 4 4 3 2 2 1 0 0 0 0 0 0 0 0 0 0 0 0 0 0 0 0 0 0 0 0 0
0 0 0 0 0 0 0 0 0 0 0 0 0 1 1 1 1 3 2 3 2 2 1 0 0 0 0 0 0 0 0 0 0 0 0 0 0 0 0 0 0 0 0
0 0 0 0 0 0 0 0 0 0 0 0 0 0 0 0 0 1 1 2 3 2 1 1 0 0 0 0 0 0 0 0 0 0 0 0 0 0 0 0 0 0 0
0 0 0 0 0 0 0 0 0 0 0 0 0 0 0 0 0 0 0 1 1 2 1 1 0 0 0 0 0 0 0 0 0 0 0 0 0 0 0 0 0 0 0
0 0 0 0 0 0 0 0 0 0 0 0 0 0 0 0 0 0 0 0 0 1 2 1 1 0 0 0 0 0 0 0 0 0 0 0 0 0 0 0 0 0 0
0 0 0 0 0 0 0 0 0 0 0 0 0 0 0 0 0 0 0 0 0 0 0 2 1 0 0 0 0 0 0 0 0 0 0 0 0 0 0 0 0 0 0
0 0 0 0 0 0 0 0 0 0 0 0 0 0 0 0 0 0 0 0 0 0 0 0 1 1 0 0 0 0 0 0 0 0 0 0 0 0 0 0 0 0 0
0 0 0 0 0 0 0 0 0 0 0 0 0 0 0 0 0 0 0 0 0 0 0 0 0 0 0 0 0 0 0 0 0 0 0 0 0 0 0 0 0 0 0
0 0 0 0 0 0 0 0 0 0 0 0 0 0 0 0 0 0 0 0 0 0 0 0 0 0 0 0 0 0 0 0 0 0 0 0 0 0 0 0 0 0 0
0 0 0 0 0 0 0 0 0 0 0 0 0 0 0 0 0 0 0 0 0 0 0 0 0 0 0 0 0 0 0 0 0 0 0 0 0 0 0 0 0 0 0
0 0 0 0 0 0 0 0 0 0 0 0 0 0 0 0 0 0 0 0 0 0 0 0 0 0 0 0 0 0 0 0 0 0 0 0 0 0 0 0 0 0 0
0 0 0 0 0 0 0 0 0 0 0 0 0 0 0 0 0 0 0 0 0 0 0 0 0 0 0 0 0 0 0 0 0 0 0 0 0 0 0 0 0 0 0
0 0 0 0 0 0 0 0 0 0 0 0 0 0 0 0 0 0 0 0 0 0 0 0 0 0 0 0 0 0 0 0 0 0 0 0 0 0 0 0 0 0 0
0 0 0 0 0 0 0 0 0 0 0 0 0 0 0 0 0 0 0 0 0 0 0 0 0 0 0 0 0 0 0 0 0 0 0 0 0 0 0 0 0 0 0
0 0 0 0 0 0 0 0 0 0 0 0 0 0 0 0 0 0 0 0 -0 -0 -0 -0 0 0 0 0 0 0 0 0 0 0 0 0 0 0 0 0 0 0 0
0 0 0 0 0 0 0 0 0 0 0 0 0 0 0 0 0 0 -0 -0 -0 -0 -0 -0 0 0 0 0 0 0 0 0 0 0 0 0 0 0 0 0 0 0 0
0 0 0 0 0 0 0 0 0 0 0 0 0 0 0 0 0 0 0 -0 0 0 0 0 0 0 0 0 0 0 0 0 0 0 0 0 0 0 0 0 0 0 0
0 0 0 0 0 0 0 0 0 0 0 0 0 0 0 0 0 0 0 0 0 0 0 0 0 0 0 0 0 0 0 0 0 0 0 0 0 0 0 0 0 0 0
0 0 0 0 0 0 0 0 0 0 0 0 0 0 0 0 0 0 0 0 0 0 0 0 0 0 0 0 0 0 0 0 0 0 0 0 0 0 0 0 0 0 0
0 -0 0 0 0 0 0 0 0 0 0 0 0 0 0 0 0 0 0 0 0 0 0 0 0 0 0 0 0 0 0 0 0 0 0 0 0 0 0 0 0 0 -0
0 0 0 0 0 0 0 0 0 0 0 0 0 0 0 0 0 0 0 0 0 0 0 0 0 0 0 0 0 0 0 0 0 0 0 0 0 0 0 0 0 0 -0
0 0 0 0 0 0 0 0 0 0 0 -0 -0 0 0 0 0 0 0 0 0 0 0 0 0 0 0 0 0 0 0 0 0 0 0 0 0 0 0 0 0 -0 -0
0 0 0 0 0 0 0 0 0 0 0 0 -0 -0 0 0 0 0 0 -0 0 0 0 0 0 0 0 0 0 0 0 0 0 0 0 0 0 0 0 0 -0 -0 -0
0 0 0 0 0 0 0 0 0 0 0 0 -0 -0 -0 -0 0 -0 0 0 -0 0 0 0 0 0 0 0 0 0 0 0 0 0 0 0 0 0 0 -0 -0 -0 0
0 0 0 0 0 0 0 0 0 0 -0 -0 0 -0 -0 0 0 -0 -0 0 -0 0 -0 0 0 0 0 0 0 0 0 0 0 0 0 0 0 0 0 -0 0 0 0
0 0 0 0 0 0 0 0 0 0 -0 -0 -0 -0 -0 -0 0 0 0 0 -0 -0 0 -0 0 0 0 0 0 0 0 0 0 0 0 0 0 0 -0 0 0 0 -0
Wind_Speed_500mb
33 40 45 49 50 49 50 50 49 44 43 44 51 60 65 71 85 94 100 105 110 119 128 124 115 103 117 114 115 112 111 96 87 76 88 88 84 82 74 66 57 50 39
42 44 48 50 54 66 70 66 65 60 55 56 54 48 51 57 65 79 89 100 106 115 124 125 120 114 137 124 120 125 120 107 95 88 83 89 94 90 81 71 66 54 46
38 39 51 59 62 57 54 65 68 69 66 67 67 65 64 62 61 69 71 86 102 111 114 119 122 114 141 145 136 133 134 117 101 97 92 91 96 92 90 78 71 58 46
41 47 55 61 53 51 59 53 61 75 67 69 75 73 70 71 74 76 76 73 79 102 115 112 117 121 122 129 135 143 136 123 108 109 101 93 98 96 92 89 81 63 54
55 64 71 70 67 65 60 60 64 59 60 71 77 76 76 77 78 75 73 76 78 71 111 118 119 118 119 123 123 127 137 127 117 116 111 100 100 105 111 100 86 69 66
66 67 61 62 66 67 65 59 70 67 66 68 68 72 79 86 85 77 71 67 75 80 81 104 125 125 119 119 127 114 121 132 131 125 121 121 114 111 105 106 96 79 74
59 61 63 66 66 67 65 70 71 70 77 68 62 70 71 72 80 78 72 73 74 78 86 96 94 127 127 126 114 125 120 115 133 135 139 138 125 116 108 111 104 82 83
64 64 66 67 70 70 73 70 68 70 69 77 87 80 79 79 75 77 81 82 78 77 78 81 91 94 128 133 124 125 122 118 127 131 143 142 128 117 115 108 103 79 72
66 68 70 70 76 75 73 74 77 79 81 81 78 81 84 89 84 86 87 77 77 77 76 77 77 87 97 114 122 130 135 134 121 126 136 131 119 114 112 105 99 85 83
73 73 72 74 69 68 71 77 77 79 81 81 83 78 78 84 84 81 75 71 72 77 80 78 71 73 88 103 119 119 118 116 112 125 129 113 106 108 114 101 91 92 92
61 61 61 58 61 63 66 69 73 74 75 79 83 82 73 71 78 72 68 66 71 77 78 81 73 70 73 75 126 123 118 120 121 124 130 118 104 103 105 88 86 99 97
60 54 60 54 55 58 61 65 66 68 73 79 82 82 74 73 72 75 74 68 70 72 71 72 71 62 72 56 92 127 105 96 125 128 133 122 116 109 100 90 90 95 75
58 51 58 55 57 59 63 70 75 74 74 79 81 83 82 81 82 81 77 67 69 76 74 69 74 70 71 69 71 104 110 102 113 106 122 125 125 113 103 94 89 75 60
55 52 49 53 60 59 63 71 74 73 77 75 79 83 88 86 83 75 63 62 70 73 73 69 70 61 64 49 67 104 86 111 97 99 98 113 119 113 103 94 95 82 72
52 47 49 56 59 61 63 71 78 78 64 71 71 69 74 73 70 64 63 72 75 75 75 71 67 57 51 59 86 103 103 115 111 119 111 97 114 104 92 105 87 82 71
53 49 50 57 57 63 73 80 86 83 70 61 61 64 66 64 61 71 80 84 82 71 71 66 65 58 62 70 88 98 98 106 109 107 115 110 107 101 114 105 87 93 87
52 57 57 56 57 68 73 79 93 97 85 75 67 63 60 64 67 72 76 74 68 64 66 62 62 59 63 75 82 95 105 115 116 118 112 115 111 115 125 109 107 103 86
58 55 58 58 58 63 65 73 85 90 93 92 83 77 79 74 64 62 61 62 63 64 59 54 54 59 64 76 88 99 98 100 111 115 114 117 123 124 128 117 105 103 86
64 63 60 58 57 59 59 65 79 81 86 85 85 84 82 82 69 60 57 47 43 45 43 41 48 59 64 79 89 88 84 105 113 113 111 115 119 120 116 108 105 103 86
60 63 64 64 65 60 57 65 74 81 79 82 81 81 79 79 75 72 62 53 35 29 30 29 40 55 66 78 84 90 100 95 96 107 115 113 114 112 111 103 111 92 87
54 56 58 62 71 56 55 58 71 79 83 75 79 76 72 74 69 68 66 60 56 39 24 21 31 45 59 68 79 86 87 89 103 99 105 107 112 113 98 106 112 87 75
51 48 54 55 61 52 49 54 67 76 85 80 78 80 76 69 66 64 60 62 47 47 36 24 25 35 43 57 66 72 80 92 103 106 109 108 116 102 97 107 90 77 73
46 44 46 49 54 49 52 54 64 74 75 81 78 78 78 81 67 63 69 52 53 34 37 22 19 25 34 45 54 66 78 95 102 105 112 103 107 99 109 88 91 80 73
42 45 37 40 44 43 49 53 58 72 60 62 80 84 83 75 79 67 62 56 50 42 35 15 12 20 33 50 61 70 84 93 102 98 105 107 96 95 86 88 85 74 72
41 40 35 34 39 40 44 46 48 59 65 61 58 72 77 80 70 66 66 62 59 41 36 19 5 16 29 36 55 67 81 92 98 90 74 102 94 80 88 75 72 71 75
34 28 27 24 31 38 40 45 49 55 60 63 67 52 65 72 74 64 76 67 52 47 53 33 13 13 21 34 45 64 77 79 74 84 77 86 70 71 79 70 69 70 74
Wind_Direction_500mb
331 325 318 312 308 303 303 306 309 301 297 289 289 280 269 271 272 265 262 261 257 257 261 258 258 261 256 249 246 240 238 239 233 233 232 232 227 225 222 230 231 240 243
324 316 308 308 303 297 301 304 305 303 304 300 296 290 282 277 276 278 271 268 264 260 257 259 255 243 252 250 248 242 238 238 238 233 230 227 223 225 225 229 230 233 236
332 321 314 314 315 317 307 303 305 305 305 302 301 302 299 292 280 272 275 273 271 268 264 262 260 251 245 249 247 244 240 236 236 231 233 230 222 217 219 223 229 230 230
315 313 312 311 309 305 305 304 300 303 301 302 303 305 306 305 302 294 287 282 279 267 263 265 264 259 258 251 246 239 239 235 230 229 233 230 223 219 217 218 216 221 226
314 314 312 308 303 298 296 294 296 293 292 296 299 300 301 305 308 307 298 288 285 286 264 264 265 264 262 259 251 243 237 234 227 224 227 223 217 212 211 215 219 223 225
317 317 320 320 315 313 317 315 298 291 288 288 288 292 296 300 304 306 299 294 286 289 281 264 259 258 263 260 257 250 246 234 225 219 221 221 223 220 213 215 213 213 214
319 318 322 324 320 319 315 313 308 308 288 289 291 287 290 294 298 301 304 302 294 289 284 278 272 255 259 260 258 249 240 239 232 229 221 224 225 222 218 213 213 217 218
325 324 324 324 321 318 317 313 313 316 308 300 286 288 290 287 293 304 305 301 296 291 291 282 275 269 254 253 256 248 240 236 230 225 231 230 230 230 228 233 220 222 216
325 323 321 319 318 317 312 317 312 311 310 309 303 293 282 284 289 296 302 298 296 296 296 290 281 271 264 249 249 244 241 235 230 230 227 228 230 234 229 216 208 206 196
325 321 318 317 317 317 316 315 315 311 308 309 305 301 292 288 290 294 296 297 296 300 299 299 285 280 268 259 240 232 235 234 229 222 219 220 221 228 229 229 218 201 189
330 330 330 327 322 321 323 320 317 314 311 309 307 306 297 290 292 296 298 297 296 302 299 299 291 283 277 266 246 249 236 239 227 223 211 209 212 219 219 217 213 205 198
328 326 337 339 339 335 330 326 323 320 315 314 312 308 304 300 294 296 300 296 295 299 301 297 289 288 279 271 255 235 247 233 228 211 205 205 208 207 203 204 204 202 212
333 328 336 339 341 338 335 333 329 324 321 316 313 309 306 304 300 300 302 299 297 300 299 292 283 272 277 266 263 230 229 213 208 190 189 196 205 200 194 192 191 195 190
342 340 343 345 339 338 340 340 335 332 324 316 315 312 308 308 306 304 301 296 300 303 304 294 287 275 271 262 252 224 221 226 216 201 183 183 186 185 189 187 182 188 182
351 351 346 338 339 347 352 349 343 339 326 319 315 313 315 311 309 302 292 295 298 302 301 294 285 286 277 251 223 215 211 206 201 191 186 175 178 183 183 181 181 179 183
353 349 341 343 349 348 348 346 343 345 342 327 314 311 308 301 300 295 293 291 291 292 291 287 281 279 266 245 220 213 217 209 203 199 190 192 192 188 178 178 182 179 185
359 357 354 349 347 348 349 350 347 349 350 348 342 333 321 311 301 297 294 292 289 289 281 278 273 271 257 233 224 212 207 200 202 193 193 194 189 181 177 178 180 183 189
2 356 352 348 350 347 345 351 352 349 347 347 348 347 344 335 321 317 310 299 290 281 272 270 267 261 243 221 212 206 198 188 193 193 191 185 184 176 175 178 179 185 194
4 4 355 354 352 345 349 353 354 347 349 347 349 350 348 347 346 341 339 314 292 278 269 263 259 254 240 221 206 206 216 198 195 190 181 176 174 172 173 177 178 188 195
0 4 7 4 358 357 358 1 358 353 349 352 351 350 352 348 354 352 351 342 330 290 275 263 252 247 233 219 215 208 203 199 189 182 179 173 170 171 172 176 178 186 195
354 357 358 3 359 2 6 14 12 5 2 353 357 358 1 360 355 356 358 357 357 347 323 286 262 242 229 219 211 202 195 193 182 175 175 169 167 167 179 182 179 182 193
345 350 0 360 6 5 8 5 11 9 10 5 4 7 5 7 10 359 4 358 350 4 344 314 276 249 237 226 220 207 199 185 177 180 173 165 168 176 176 168 178 189 195
341 346 357 5 7 6 3 8 10 6 7 18 13 11 11 12 6 3 1 10 2 359 4 330 274 236 223 218 214 207 194 180 176 174 166 165 174 174 162 172 182 188 190
332 342 350 2 7 8 4 4 4 12 10 13 26 23 19 16 22 24 11 23 16 6 7 327 280 218 203 188 179 182 179 175 169 170 176 171 167 154 167 176 179 180 186
329 337 345 2 0 3 4 2 6 8 14 6 5 13 16 21 21 19 18 17 16 25 15 3 313 205 200 189 176 173 172 175 172 169 165 160 158 155 168 173 171 177 183
328 337 345 350 1 358 3 1 6 12 14 12 13 8 15 23 27 28 24 29 37 34 35 50 73 100 161 186 182 168 170 168 163 159 154 153 154 162 170 173 172 178 182
Wind_Speed_850mb
33 40 45 49 50 49 50 50 49 44 43 44 51 60 65 71 85 94 100 105 110 119 128 124 115 103 117 114 115 112 111 96 87 76 88 88 84 82 74 66 57 50 39
42 44 48 50 54 66 70 66 65 60 55 56 54 48 51 57 65 79 89 100 106 115 124 125 120 114 137 124 120 125 120 107 95 88 83 89 94 90 81 71 66 54 46
38 39 51 59 62 57 54 65 68 69 66 67 67 65 64 62 61 69 71 86 102 111 114 119 122 114 141 145 136 133 134 117 101 97 92 91 96 92 90 78 71 58 46
41 47 55 61 53 51 59 53 61 75 67 69 75 73 70 71 74 76 76 73 79 102 115 112 117 121 122 129 135 143 136 123 108 109 101 93 98 96 92 89 81 63 54
55 64 71 70 67 65 60 60 64 59 60 71 77 76 76 77 78 75 73 76 78 71 111 118 119 118 119 123 123 127 137 127 117 116 111 100 100 105 111 100 86 69 66
66 67 61 62 66 67 65 59 70 67 66 68 68 72 79 86 85 77 71 67 75 80 81 104 125 125 119 119 127 114 121 132 131 125 121 121 114 111 105 106 96 79 74
59 61 63 66 66 67 65 70 71 70 77 68 62 70 71 72 80 78 72 73 74 78 86 96 94 127 127 126 114 125 120 115 133 135 139 138 125 116 108 111 104 82 83
64 64 66 67 70 70 73 70 68 70 69 77 87 80 79 79 75 77 81 82 78 77 78 81 91 94 128 133 124 125 122 118 127 131 143 142 128 117 115 108 103 79 72
66 68 70 70 76 75 73 74 77 79 81 81 78 81 84 89 84 86 87 77 77 77 76 77 77 87 97 114 122 130 135 134 121 126 136 131 119 114 112 105 99 85 83
73 73 72 74 69 68 71 77 77 79 81 81 83 78 78 84 84 81 75 71 72 77 80 78 71 73 88 103 119 119 118 116 112 125 129 113 106 108 114 101 91 92 92
61 61 61 58 61 63 66 69 73 74 75 79 83 82 73 71 78 72 68 66 71 77 78 81 73 70 73 75 126 123 118 120 121 124 130 118 104 103 105 88 86 99 97
60 54 60 54 55 58 61 65 66 68 73 79 82 82 74 73 72 75 74 68 70 72 71 72 71 62 72 56 92 127 105 96 125 128 133 122 116 109 100 90 90 95 75
58 51 58 55 57 59 63 70 75 74 74 79 81 83 82 81 82 81 77 67 69 76 74 69 74 70 71 69 71 104 110 102 113 106 122 125 125 113 103 94 89 75 60
55 52 49 53 60 59 63 71 74 73 77 75 79 83 88 86 83 75 63 62 70 73 73 69 70 61 64 49 67 104 86 111 97 99 98 113 119 113 103 94 95 82 72
52 47 49 56 59 61 63 71 78 78 64 71 71 69 74 73 70 64 63 72 75 75 75 71 67 57 51 59 86 103 103 115 111 119 111 97 114 104 92 105 87 82 71
53 49 50 57 57 63 73 80 86 83 70 61 61 64 66 64 61 71 80 84 82 71 71 66 65 58 62 70 88 98 98 106 109 107 115 110 107 101 114 105 87 93 87
52 57 57 56 57 68 73 79 93 97 85 75 67 63 60 64 67 72 76 74 68 64 66 62 62 59 63 75 82 95 105 115 116 118 112 115 111 115 125 109 107 103 86
58 55 58 58 58 63 65 73 85 90 93 92 83 77 79 74 64 62 61 62 63 64 59 54 54 59 64 76 88 99 98 100 111 115 114 117 123 124 128 117 105 103 86
64 63 60 58 57 59 59 65 79 81 86 85 85 84 82 82 69 60 57 47 43 45 43 41 48 59 64 79 89 88 84 105 113 113 111 115 119 120 116 108 105 103 86
60 63 64 64 65 60 57 65 74 81 79 82 81 81 79 79 75 72 62 53 35 29 30 29 40 55 66 78 84 90 100 95 96 107 115 113 114 112 111 103 111 92 87
54 56 58 62 71 56 55 58 71 79 83 75 79 76 72 74 69 68 66 60 56 39 24 21 31 45 59 68 79 86 87 89 103 99 105 107 112 113 98 106 112 87 75
51 48 54 55 61 52 49 54 67 76 85 80 78 80 76 69 66 64 60 62 47 47 36 24 25 35 43 57 66 72 80 92 103 106 109 108 116 102 97 107 90 77 73
46 44 46 49 54 49 52 54 64 74 75 81 78 78 78 81 67 63 69 52 53 34 37 22 19 25 34 45 54 66 78 95 102 105 112 103 107 99 109 88 91 80 73
42 45 37 40 44 43 49 53 58 72 60 62 80 84 83 75 79 67 62 56 50 42 35 15 12 20 33 50 61 70 84 93 102 98 105 107 96 95 86 88 85 74 72
41 40 35 34 39 40 44 46 48 59 65 61 58 72 77 80 70 66 66 62 59 41 36 19 5 16 29 36 55 67 81 92 98 90 74 102 94 80 88 75 72 71 75
34 28 27 24 31 38 40 45 49 55 60 63 67 52 65 72 74 64 76 67 52 47 53 33 13 13 21 34 45 64 77 79 74 84 77 86 70 71 79 70 69 70 74
Wind_Direction_850mb
331 325 318 312 308 303 303 306 309 301 297 289 289 280 269 271 272 265 262 261 257 257 261 258 258 261 256 249 246 240 238 239 233 233 232 232 227 225 222 230 231 240 243
324 316 308 308 303 297 301 304 305 303 304 300 296 290 282 277 276 278 271 268 264 260 257 259 255 243 252 250 248 242 238 238 238 233 230 227 223 225 225 229 230 233 236
332 321 314 314 315 317 307 303 305 305 305 302 301 302 299 292 280 272 275 273 271 268 264 262 260 251 245 249 247 244 240 236 236 231 233 230 222 217 219 223 229 230 230
315 313 312 311 309 305 305 304 300 303 301 302 303 305 306 305 302 294 287 282 279 267 263 265 264 259 258 251 246 239 239 235 230 229 233 230 223 219 217 218 216 221 226
314 314 312 308 303 298 296 294 296 293 292 296 299 300 301 305 308 307 298 288 285 286 264 264 265 264 262 259 251 243 237 234 227 224 227 223 217 212 211 215 219 223 225
317 317 320 320 315 313 317 315 298 291 288 288 288 292 296 300 304 306 299 294 286 289 281 264 259 258 263 260 257 250 246 234 225 219 221 221 223 220 213 215 213 213 214
319 318 322 324 320 319 315 313 308 308 288 289 291 287 290 294 298 301 304 302 294 289 284 278 272 255 259 260 258 249 240 239 232 229 221 224 225 222 218 213 213 217 218
325 324 324 324 321 318 317 313 313 316 308 300 286 288 290 287 293 304 305 301 296 291 291 282 275 269 254 253 256 248 240 236 230 225 231 230 230 230 228 233 220 222 216
325 323 321 319 318 317 312 317 312 311 310 309 303 293 282 284 289 296 302 298 296 296 296 290 281 271 264 249 249 244 241 235 230 230 227 228 230 234 229 216 208 206 196
325 321 318 317 317 317 316 315 315 311 308 309 305 301 292 288 290 294 296 297 296 300 299 299 285 280 268 259 240 232 235 234 229 222 219 220 221 228 229 229 218 201 189
330 330 330 327 322 321 323 320 317 314 311 309 307 306 297 290 292 296 298 297 296 302 299 299 291 283 277 266 246 249 236 239 227 223 211 209 212 219 219 217 213 205 198
328 326 337 339 339 335 330 326 323 320 315 314 312 308 304 300 294 296 300 296 295 299 301 297 289 288 279 271 255 235 247 233 228 211 205 205 208 207 203 204 204 202 212
333 328 336 339 341 338 335 333 329 324 321 316 313 309 306 304 300 300 302 299 297 300 299 292 283 272 277 266 263 230 229 213 208 190 189 196 205 200 194 192 191 195 190
342 340 343 345 339 338 340 340 335 332 324 316 315 312 308 308 306 304 301 296 300 303 304 294 287 275 271 262 252 224 221 226 216 201 183 183 186 185 189 187 182 188 182
351 351 346 338 339 347 352 349 343 339 326 319 315 313 315 311 309 302 292 295 298 302 301 294 285 286 277 251 223 215 211 206 201 191 186 175 178 183 183 181 181 179 183
353 349 341 343 349 348 348 346 343 345 342 327 314 311 308 301 300 295 293 291 291 292 291 287 281 279 266 245 220 213 217 209 203 199 190 192 192 188 178 178 182 179 185
359 357 354 349 347 348 349 350 347 349 350 348 342 333 321 311 301 297 294 292 289 289 281 278 273 271 257 233 224 212 207 200 202 193 193 194 189 181 177 178 180 183 189
2 356 352 348 350 347 345 351 352 349 347 347 348 347 344 335 321 317 310 299 290 281 272 270 267 261 243 221 212 206 198 188 193 193 191 185 184 176 175 178 179 185 194
4 4 355 354 352 345 349 353 354 347 349 347 349 350 348 347 346 341 339 314 292 278 269 263 259 254 240 221 206 206 216 198 195 190 181 176 174 172 173 177 178 188 195
0 4 7 4 358 357 358 1 358 353 349 352 351 350 352 348 354 352 351 342 330 290 275 263 252 247 233 219 215 208 203 199 189 182 179 173 170 171 172 176 178 186 195
354 357 358 3 359 2 6 14 12 5 2 353 357 358 1 360 355 356 358 357 357 347 323 286 262 242 229 219 211 202 195 193 182 175 175 169 167 167 179 182 179 182 193
345 350 0 360 6 5 8 5 11 9 10 5 4 7 5 7 10 359 4 358 350 4 344 314 276 249 237 226 220 207 199 185 177 180 173 165 168 176 176 168 178 189 195
341 346 357 5 7 6 3 8 10 6 7 18 13 11 11 12 6 3 1 10 2 359 4 330 274 236 223 218 214 207 194 180 176 174 166 165 174 174 162 172 182 188 190
332 342 350 2 7 8 4 4 4 12 10 13 26 23 19 16 22 24 11 23 16 6 7 327 280 218 203 188 179 182 179 175 169 170 176 171 167 154 167 176 179 180 186
329 337 345 2 0 3 4 2 6 8 14 6 5 13 16 21 21 19 18 17 16 25 15 3 313 205 200 189 176 173 172 175 172 169 165 160 158 155 168 173 171 177 183
328 337 345 350 1 358 3 1 6 12 14 12 13 8 15 23 27 28 24 29 37 34 35 50 73 100 161 186 182 168 170 168 163 159 154 153 154 162 170 173 172 178 182